CDT,Max TemperatureF,Mean TemperatureF,Min TemperatureF,Max Dew PointF,MeanDew PointF,Min DewpointF,Max Humidity, Mean Humidity, Min Humidity, Max Sea Level PressureIn, Mean Sea Level PressureIn, Min Sea Level PressureIn, Max VisibilityMiles, Mean VisibilityMiles, Min VisibilityMiles, Max Wind SpeedMPH, Mean Wind SpeedMPH, Max Gust SpeedMPH,PrecipitationIn, CloudCover, Events, WindDirDegrees
2013-9-1,93,82,73,67,63,59,79,53,41,29.90,29.83,29.77,10,8,6,18,9,25,0.00,1,,351
2013-9-2,89,80,72,69,60,52,87,56,28,30.03,29.96,29.91,10,9,4,12,7,,0.00,0,,38
2013-9-3,89,76,63,60,57,52,81,53,30,30.06,30.01,29.96,10,10,7,8,4,,0.00,0,,63
2013-9-4,91,80,68,65,59,55,68,50,35,30.09,30.04,30.00,10,9,7,9,6,,0.00,0,,106
2013-9-5,93,83,73,66,60,57,57,46,33,30.13,30.06,30.02,10,8,7,12,8,,0.00,0,,143
2013-9-6,95,85,75,64,60,56,52,44,30,30.07,30.01,29.94,9,8,7,14,10,,0.00,0,,158
2013-9-7,97,86,75,65,61,59,56,45,30,29.99,29.94,29.88,8,7,5,13,9,,0.00,0,,173
2013-9-8,95,84,73,64,60,56,67,47,29,29.95,29.90,29.85,9,8,5,14,8,21,0.00,0,,189
2013-9-9,93,82,72,64,58,53,66,46,28,29.96,29.91,29.87,10,9,8,18,10,30,0.00,0,,185
2013-9-10,91,80,71,63,59,55,70,49,35,30.06,30.01,29.94,10,10,8,18,10,26,0.00,0,,179
2013-9-11,91,80,68,64,59,55,65,48,33,30.12,30.06,30.00,9,8,7,14,8,20,0.00,0,,178
2013-9-12,93,81,71,69,64,61,87,60,35,30.08,30.03,29.97,7,6,2,17,7,30,0.08,2,Rain-Thunderstorm,148
2013-9-13,80,76,72,67,63,51,81,66,46,30.03,29.98,29.93,10,8,7,14,9,,0.00,1,,56
2013-9-14,81,72,64,60,55,50,61,53,45,30.00,29.95,29.91,10,9,7,17,10,22,0.00,1,,124
2013-9-15,91,80,69,65,59,52,62,50,38,30.00,29.96,29.92,10,8,7,17,12,22,0.00,0,,180
2013-9-16,88,79,71,68,66,61,87,71,48,30.13,30.07,29.99,8,6,4,18,10,32,0.07,4,Rain-Thunderstorm,53
2013-9-17,89,79,70,70,66,62,94,76,43,30.11,30.02,29.93,10,5,0,31,6,47,0.31,4,Rain-Thunderstorm,150
2013-9-18,91,82,72,66,63,58,81,57,32,29.96,29.90,29.83,10,8,5,21,12,32,0.01,0,,183
2013-9-19,86,78,70,67,64,62,84,65,51,29.96,29.90,29.85,10,9,6,22,12,25,0.03,2,Rain-Thunderstorm,197
2013-9-20,71,64,59,65,59,49,90,78,49,30.03,29.98,29.89,10,9,2,17,8,24,0.00,5,Rain,5
2013-9-21,82,66,52,53,49,46,86,59,30,30.04,29.98,29.91,10,10,5,12,3,,0.00,0,,87
2013-9-22,81,68,55,49,46,43,75,47,27,29.94,29.87,29.79,10,10,4,14,6,17,0.00,0,,148
2013-9-23,82,71,60,50,49,46,64,46,31,29.83,29.79,29.72,10,10,10,20,15,26,0.00,0,,165
2013-9-24,87,73,59,53,45,37,70,44,18,29.96,29.90,29.86,10,10,8,22,9,30,0.00,0,,296
2013-9-25,89,72,55,57,49,46,83,52,23,29.92,29.84,29.74,10,8,2,14,3,20,0.00,0,,146
2013-9-26,93,81,69,56,52,47,47,38,29,29.81,29.77,29.73,10,9,9,23,16,32,0.00,0,,169
2013-9-27,89,78,66,65,59,52,68,52,38,29.88,29.82,29.77,10,9,7,23,17,32,0.00,1,,165
2013-9-28,78,66,54,68,56,46,94,74,44,30.12,29.95,29.77,10,7,1,28,16,36,1.70,5,Rain-Thunderstorm,342
2013-9-29,75,62,48,51,45,41,86,58,30,30.11,30.03,29.94,10,10,7,8,1,,0.00,0,,39
2013-9-30,84,68,54,50,48,46,77,52,30,29.91,29.84,29.78,10,10,7,15,8,22,0.00,0,,169